QPF
0.04 0.03 0.03 0.02 0.02 0.02 0.02 0.01 0.01 0.01 0.02 0.03 0.03 0.02 0.02 0.01 0.01 0.01 0.01 0.02 0.03 0.02 0.02 0.02 0.02 0.02 0.02 0.02 0.03 0.04 0.05 0.06 0.08 0.09 0.09 0.08 0.06 0.07 0.08 0.06 0.05 0.04 0.03 0.02
0.04 0.02 0.01 0.01 0.01 0.02 0.02 0.02 0.02 0.02 0.02 0.02 0.03 0.03 0.02 0.02 0.02 0.01 0.01 0.03 0.04 0.03 0.03 0.03 0.03 0.04 0.03 0.03 0.03 0.03 0.04 0.04 0.06 0.09 0.11 0.11 0.09 0.07 0.07 0.07 0.06 0.05 0.04 0.04
0.03 0.03 0.01 0.02 0.03 0.03 0.03 0.02 0.02 0.02 0.03 0.03 0.03 0.04 0.03 0.05 0.04 0.02 0.01 0.02 0.03 0.03 0.03 0.03 0.03 0.02 0.02 0.02 0.02 0.03 0.05 0.05 0.06 0.07 0.09 0.12 0.14 0.12 0.09 0.08 0.07 0.06 0.06 0.05
0.03 0.02 0.02 0.02 0.02 0.03 0.03 0.02 0.03 0.03 0.03 0.05 0.04 0.05 0.05 0.05 0.05 0.04 0.02 0.01 0.02 0.03 0.02 0.03 0.03 0.03 0.02 0.01 0.01 0.02 0.03 0.05 0.07 0.10 0.11 0.11 0.11 0.12 0.12 0.11 0.09 0.07 0.06 0.06
0.04 0.02 0.02 0.02 0.02 0.02 0.02 0.02 0.03 0.04 0.05 0.06 0.05 0.05 0.05 0.05 0.06 0.05 0.05 0.04 0.03 0.03 0.02 0.02 0.03 0.03 0.03 0.02 0.02 0.02 0.02 0.04 0.06 0.09 0.11 0.13 0.13 0.12 0.11 0.10 0.09 0.09 0.08 0.07
0.04 0.02 0.02 0.02 0.02 0.03 0.03 0.04 0.06 0.07 0.08 0.10 0.06 0.05 0.05 0.04 0.07 0.06 0.05 0.04 0.03 0.03 0.03 0.03 0.03 0.03 0.03 0.03 0.03 0.02 0.03 0.02 0.03 0.05 0.07 0.09 0.10 0.10 0.10 0.09 0.09 0.09 0.09 0.09
0.04 0.03 0.03 0.02 0.03 0.04 0.04 0.06 0.10 0.11 0.12 0.10 0.05 0.04 0.04 0.04 0.04 0.04 0.03 0.02 0.02 0.02 0.02 0.02 0.02 0.03 0.03 0.03 0.03 0.04 0.04 0.04 0.02 0.03 0.05 0.06 0.08 0.09 0.09 0.09 0.09 0.09 0.10 0.10
0.03 0.03 0.03 0.02 0.03 0.04 0.04 0.05 0.06 0.06 0.06 0.04 0.03 0.04 0.04 0.02 0.02 0.01 0.01 0.01 0.02 0.03 0.03 0.03 0.02 0.02 0.03 0.03 0.03 0.04 0.05 0.04 0.03 0.02 0.03 0.04 0.05 0.07 0.08 0.08 0.08 0.09 0.09 0.09
0.04 0.04 0.03 0.03 0.03 0.03 0.05 0.05 0.04 0.04 0.03 0.02 0.02 0.03 0.02 0.02 0.01 0.01 0.01 0.01 0.02 0.02 0.02 0.03 0.03 0.02 0.02 0.03 0.02 0.01 0.02 0.02 0.02 0.02 0.02 0.03 0.04 0.05 0.06 0.07 0.07 0.07 0.08 0.08
0.04 0.04 0.03 0.03 0.03 0.03 0.03 0.04 0.04 0.04 0.04 0.02 0.02 0.02 0.02 0.01 0.01 0.01 0.01 0.01 0.01 0.01 0.01 0.02 0.03 0.03 0.02 0.02 0.01 0.01 0.01 0.01 0.01 0.01 0.02 0.02 0.03 0.04 0.05 0.05 0.05 0.05 0.06 0.06
0.03 0.03 0.03 0.03 0.03 0.04 0.04 0.04 0.04 0.04 0.03 0.02 0.01 0.01 0.01 0.01 0.01 0.01 0.01 0.01 0.01 0.01 0.01 0.01 0.02 0.02 0.02 0.02 0.01 0.01 0.01 0.01 0.01 0.01 0.01 0.02 0.02 0.04 0.05 0.05 0.04 0.04 0.04 0.05
0.02 0.03 0.03 0.02 0.02 0.02 0.04 0.04 0.03 0.03 0.03 0.01 0.01 0.01 0.01 0.01 0.01 0.00 0.00 0.01 0.01 0.01 0.01 0.02 0.02 0.03 0.03 0.02 0.02 0.01 0.01 0.01 0.00 0.01 0.01 0.01 0.01 0.03 0.03 0.04 0.04 0.04 0.04 0.05
0.02 0.03 0.03 0.03 0.03 0.02 0.02 0.02 0.02 0.02 0.02 0.02 0.01 0.01 0.01 0.01 0.02 0.00 0.00 0.00 0.00 0.00 0.01 0.01 0.01 0.01 0.01 0.01 0.01 0.01 0.01 0.00 0.00 0.00 0.01 0.01 0.01 0.01 0.02 0.03 0.03 0.03 0.04 0.04
0.02 0.02 0.02 0.03 0.03 0.02 0.01 0.01 0.01 0.02 0.02 0.02 0.01 0.00 0.01 0.02 0.02 0.01 0.00 0.01 0.01 0.01 0.01 0.01 0.01 0.01 0.01 0.01 0.01 0.01 0.01 0.01 0.01 0.01 0.01 0.01 0.02 0.02 0.02 0.02 0.02 0.02 0.02 0.03
0.01 0.01 0.01 0.01 0.01 0.01 0.01 0.01 0.01 0.01 0.01 0.01 0.01 0.01 0.01 0.01 0.01 0.00 0.01 0.01 0.01 0.01 0.01 0.01 0.01 0.01 0.01 0.01 0.01 0.01 0.02 0.02 0.02 0.02 0.02 0.02 0.02 0.01 0.01 0.01 0.01 0.01 0.01 0.02
0.01 0.01 0.00 0.00 0.00 0.01 0.00 0.00 0.01 0.01 0.01 0.01 0.01 0.01 0.01 0.01 0.01 0.00 0.01 0.01 0.01 0.01 0.01 0.01 0.02 0.02 0.02 0.02 0.02 0.02 0.02 0.02 0.01 0.01 0.01 0.01 0.01 0.01 0.01 0.01 0.01 0.01 0.01 0.01
0.01 0.01 0.01 0.01 0.00 0.00 0.00 0.00 0.00 0.01 0.01 0.01 0.01 0.01 0.01 0.01 0.01 0.01 0.01 0.01 0.01 0.01 0.01 0.01 0.01 0.01 0.01 0.01 0.01 0.01 0.01 0.01 0.01 0.01 0.01 0.01 0.01 0.01 0.01 0.01 0.01 0.01 0.01 0.01
0.01 0.01 0.01 0.01 0.00 0.01 0.01 0.00 0.01 0.00 0.00 0.01 0.01 0.01 0.01 0.01 0.01 0.01 0.01 0.01 0.01 0.01 0.01 0.01 0.01 0.01 0.01 0.01 0.01 0.01 0.01 0.01 0.01 0.01 0.01 0.01 0.01 0.01 0.01 0.01 0.01 0.01 0.01 0.01
0.01 0.01 0.02 0.01 0.01 0.00 0.00 0.00 0.01 0.01 0.01 0.00 0.00 0.00 0.00 0.00 0.01 0.01 0.01 0.01 0.01 0.01 0.01 0.00 0.00 0.00 0.01 0.01 0.01 0.01 0.01 0.01 0.01 0.01 0.01 0.01 0.01 0.01 0.01 0.02 0.02 0.02 0.02 0.02
0.00 0.01 0.02 0.01 0.01 0.00 0.00 0.00 0.00 0.01 0.01 0.00 0.00 0.00 0.00 0.00 0.01 0.01 0.00 0.01 0.01 0.01 0.01 0.00 0.00 0.00 0.00 0.00 0.00 0.00 0.01 0.01 0.01 0.01 0.01 0.01 0.01 0.01 0.01 0.01 0.01 0.01 0.01 0.01
0.00 0.01 0.01 0.01 0.01 0.00 0.00 0.00 0.00 0.01 0.01 0.00 0.00 0.01 0.00 0.00 0.00 0.00 0.01 0.00 0.01 0.01 0.01 0.01 0.01 0.00 0.00 0.00 0.00 0.00 0.00 0.00 0.00 0.00 0.00 0.00 0.00 0.00 0.00 0.00 0.00 0.00 0.00 0.00
0.00 0.00 0.00 0.01 0.01 0.00 0.00 0.00 0.00 0.00 0.00 0.01 0.01 0.00 0.00 0.00 0.00 0.00 0.00 0.00 0.01 0.01 0.01 0.00 0.00 0.00 0.00 0.00 0.00 0.00 0.00 0.00 0.00 0.00 0.00 0.00 0.00 0.00 0.00 0.00 0.00 0.00 0.00 0.00
0.00 0.00 0.00 0.00 0.00 0.00 0.00 0.00 0.00 0.00 0.01 0.01 0.00 0.00 0.00 0.00 0.00 0.00 0.00 0.00 0.01 0.00 0.00 0.00 0.00 0.00 0.00 0.00 0.00 0.00 0.00 0.00 0.00 0.00 0.00 0.00 0.00 0.00 0.00 0.00 0.00 0.00 0.00 0.00
0.00 0.00 0.00 0.00 0.00 0.00 0.00 0.00 0.00 0.00 0.00 0.00 0.00 0.00 0.00 0.00 0.00 0.00 0.00 0.00 0.00 0.00 0.00 0.00 0.00 0.00 0.00 0.00 0.00 0.00 0.00 0.00 0.00 0.00 0.00 0.00 0.00 0.00 0.00 0.00 0.00 0.00 0.00 0.00
0.00 0.00 0.00 0.01 0.00 0.00 0.00 0.00 0.00 0.00 0.00 0.00 0.00 0.00 0.00 0.00 0.00 0.00 0.00 0.00 0.00 0.00 0.00 0.00 0.00 0.00 0.00 0.00 0.00 0.00 0.00 0.00 0.00 0.00 0.00 0.00 0.00 0.00 0.00 0.00 0.00 0.00 0.00 0.00
0.00 0.00 0.00 0.00 0.00 0.00 0.00 0.00 0.00 0.00 0.00 0.00 0.00 0.00 0.00 0.00 0.00 0.00 0.00 0.00 0.00 0.00 0.00 0.00 0.00 0.00 0.00 0.00 0.00 0.00 0.00 0.00 0.00 0.00 0.00 0.00 0.00 0.00 0.00 0.00 0.00 0.00 0.00 0.00
MSLP
1027.54 1027.86 1028.08 1028.16 1028.11 1027.95 1027.74 1027.56 1027.46 1027.50 1027.68 1027.99 1028.37 1028.74 1029.03 1029.16 1029.10 1028.83 1028.39 1027.82 1027.21 1026.62 1026.10 1025.68 1025.36 1025.11 1024.87 1024.61 1024.29 1023.88 1023.40 1022.88 1022.37 1021.91 1021.54 1021.27 1021.10 1021.00 1020.93 1020.83 1020.66 1020.39 1020.02 1019.58
1028.62 1028.89 1029.01 1028.97 1028.79 1028.52 1028.27 1028.10 1028.09 1028.29 1028.67 1029.21 1029.82 1030.38 1030.82 1031.03 1030.98 1030.66 1030.11 1029.41 1028.64 1027.88 1027.20 1026.64 1026.20 1025.86 1025.56 1025.27 1024.95 1024.58 1024.16 1023.72 1023.30 1022.94 1022.66 1022.47 1022.36 1022.30 1022.24 1022.13 1021.94 1021.65 1021.26 1020.79
1029.71 1029.89 1029.89 1029.72 1029.42 1029.08 1028.79 1028.65 1028.73 1029.06 1029.61 1030.31 1031.07 1031.76 1032.27 1032.51 1032.44 1032.07 1031.45 1030.65 1029.77 1028.91 1028.13 1027.47 1026.95 1026.53 1026.18 1025.85 1025.52 1025.17 1024.79 1024.42 1024.09 1023.81 1023.62 1023.51 1023.47 1023.45 1023.41 1023.32 1023.13 1022.85 1022.47 1022.00
1030.80 1030.86 1030.73 1030.44 1030.05 1029.66 1029.36 1029.26 1029.41 1029.82 1030.47 1031.25 1032.06 1032.78 1033.30 1033.51 1033.40 1032.98 1032.31 1031.47 1030.56 1029.67 1028.86 1028.18 1027.62 1027.17 1026.78 1026.42 1026.07 1025.71 1025.36 1025.02 1024.73 1024.52 1024.39 1024.33 1024.32 1024.33 1024.31 1024.23 1024.06 1023.80 1023.45 1023.02
1031.90 1031.81 1031.56 1031.17 1030.72 1030.31 1030.02 1029.96 1030.16 1030.62 1031.29 1032.07 1032.84 1033.49 1033.92 1034.05 1033.87 1033.40 1032.71 1031.88 1031.01 1030.17 1029.42 1028.79 1028.26 1027.82 1027.42 1027.05 1026.67 1026.29 1025.92 1025.57 1025.29 1025.09 1024.96 1024.91 1024.91 1024.91 1024.89 1024.81 1024.65 1024.41 1024.09 1023.72
1032.97 1032.75 1032.39 1031.93 1031.46 1031.06 1030.82 1030.80 1031.04 1031.51 1032.13 1032.83 1033.48 1033.99 1034.26 1034.25 1033.97 1033.45 1032.76 1031.99 1031.21 1030.48 1029.86 1029.33 1028.89 1028.50 1028.13 1027.75 1027.35 1026.93 1026.52 1026.13 1025.81 1025.57 1025.41 1025.32 1025.27 1025.24 1025.17 1025.06 1024.89 1024.66 1024.37 1024.04
1033.99 1033.65 1033.21 1032.73 1032.28 1031.94 1031.77 1031.82 1032.09 1032.53 1033.07 1033.63 1034.09 1034.39 1034.46 1034.28 1033.87 1033.29 1032.61 1031.92 1031.26 1030.69 1030.23 1029.85 1029.53 1029.22 1028.90 1028.52 1028.10 1027.64 1027.17 1026.73 1026.34 1026.03 1025.79 1025.62 1025.49 1025.38 1025.24 1025.07 1024.86 1024.61 1024.33 1024.03
1034.88 1034.47 1034.01 1033.57 1033.19 1032.95 1032.88 1033.00 1033.29 1033.69 1034.13 1034.51 1034.76 1034.82 1034.66 1034.28 1033.74 1033.10 1032.43 1031.81 1031.29 1030.88 1030.57 1030.35 1030.16 1029.94 1029.67 1029.31 1028.87 1028.38 1027.85 1027.34 1026.88 1026.48 1026.15 1025.88 1025.65 1025.43 1025.20 1024.94 1024.67 1024.37 1024.07 1023.77
1035.60 1035.18 1034.77 1034.41 1034.15 1034.04 1034.08 1034.28 1034.59 1034.94 1035.26 1035.46 1035.49 1035.31 1034.92 1034.36 1033.69 1032.99 1032.33 1031.78 1031.36 1031.08 1030.92 1030.82 1030.73 1030.59 1030.36 1030.02 1029.58 1029.06 1028.49 1027.93 1027.40 1026.92 1026.50 1026.13 1025.79 1025.46 1025.12 1024.77 1024.41 1024.05 1023.70 1023.38
1036.13 1035.78 1035.46 1035.23 1035.12 1035.15 1035.31 1035.57 1035.88 1036.17 1036.36 1036.39 1036.22 1035.83 1035.25 1034.54 1033.77 1033.01 1032.36 1031.85 1031.51 1031.32 1031.25 1031.23 1031.21 1031.11 1030.90 1030.57 1030.13 1029.59 1029.00 1028.41 1027.83 1027.30 1026.81 1026.36 1025.93 1025.50 1025.07 1024.62 1024.18 1023.74 1023.33 1022.96
1036.50 1036.27 1036.09 1036.01 1036.04 1036.19 1036.43 1036.72 1037.01 1037.22 1037.28 1037.15 1036.81 1036.26 1035.54 1034.73 1033.89 1033.12 1032.48 1032.00 1031.70 1031.56 1031.53 1031.54 1031.52 1031.43 1031.22 1030.88 1030.43 1029.89 1029.29 1028.69 1028.10 1027.55 1027.02 1026.52 1026.03 1025.53 1025.02 1024.50 1023.98 1023.47 1023.00 1022.57
1036.79 1036.70 1036.68 1036.73 1036.87 1037.09 1037.35 1037.62 1037.83 1037.92 1037.85 1037.58 1037.10 1036.45 1035.66 1034.80 1033.96 1033.21 1032.60 1032.16 1031.89 1031.75 1031.71 1031.70 1031.65 1031.52 1031.27 1030.91 1030.45 1029.91 1029.33 1028.74 1028.17 1027.61 1027.08 1026.56 1026.04 1025.50 1024.94 1024.37 1023.79 1023.23 1022.70 1022.21
1037.08 1037.16 1037.26 1037.41 1037.60 1037.81 1038.01 1038.17 1038.24 1038.18 1037.96 1037.56 1036.98 1036.27 1035.47 1034.64 1033.86 1033.17 1032.63 1032.23 1031.98 1031.85 1031.77 1031.70 1031.59 1031.39 1031.10 1030.71 1030.23 1029.69 1029.13 1028.56 1028.01 1027.48 1026.96 1026.44 1025.91 1025.36 1024.78 1024.18 1023.57 1022.97 1022.39 1021.85
1037.50 1037.70 1037.88 1038.06 1038.21 1038.32 1038.38 1038.35 1038.22 1037.96 1037.57 1037.04 1036.40 1035.68 1034.93 1034.19 1033.52 1032.95 1032.50 1032.18 1031.96 1031.82 1031.70 1031.57 1031.38 1031.11 1030.76 1030.32 1029.83 1029.29 1028.74 1028.20 1027.68 1027.17 1026.67 1026.17 1025.64 1025.08 1024.50 1023.88 1023.26 1022.63 1022.02 1021.43
1038.11 1038.38 1038.57 1038.69 1038.71 1038.64 1038.46 1038.18 1037.80 1037.31 1036.74 1036.10 1035.42 1034.73 1034.07 1033.46 1032.94 1032.53 1032.21 1031.98 1031.81 1031.67 1031.52 1031.33 1031.08 1030.74 1030.33 1029.86 1029.34 1028.81 1028.27 1027.75 1027.25 1026.76 1026.27 1025.76 1025.24 1024.68 1024.08 1023.46 1022.82 1022.18 1021.54 1020.91
1038.92 1039.18 1039.31 1039.29 1039.11 1038.78 1038.32 1037.74 1037.07 1036.35 1035.61 1034.87 1034.17 1033.54 1032.99 1032.55 1032.21 1031.96 1031.79 1031.67 1031.56 1031.44 1031.28 1031.05 1030.74 1030.35 1029.90 1029.40 1028.87 1028.34 1027.81 1027.29 1026.79 1026.30 1025.80 1025.29 1024.74 1024.17 1023.56 1022.93 1022.27 1021.61 1020.94 1020.27
1039.85 1040.04 1040.03 1039.81 1039.38 1038.76 1037.99 1037.11 1036.17 1035.23 1034.34 1033.53 1032.84 1032.29 1031.88 1031.60 1031.44 1031.36 1031.33 1031.31 1031.27 1031.17 1031.01 1030.75 1030.41 1030.00 1029.53 1029.01 1028.48 1027.95 1027.42 1026.90 1026.39 1025.87 1025.35 1024.80 1024.22 1023.61 1022.97 1022.30 1021.62 1020.93 1020.22 1019.52
1040.76 1040.81 1040.61 1040.16 1039.46 1038.56 1037.50 1036.36 1035.20 1034.10 1033.11 1032.27 1031.62 1031.16 1030.88 1030.76 1030.75 1030.82 1030.90 1030.96 1030.97 1030.90 1030.73 1030.46 1030.11 1029.69 1029.22 1028.71 1028.19 1027.66 1027.14 1026.61 1026.07 1025.52 1024.94 1024.34 1023.70 1023.04 1022.34 1021.63 1020.91 1020.17 1019.43 1018.68
1041.45 1041.31 1040.89 1040.20 1039.26 1038.12 1036.85 1035.53 1034.23 1033.04 1032.03 1031.21 1030.63 1030.28 1030.12 1030.13 1030.25 1030.41 1030.56 1030.67 1030.70 1030.63 1030.45 1030.18 1029.82 1029.40 1028.95 1028.46 1027.97 1027.46 1026.93 1026.39 1025.82 1025.22 1024.59 1023.91 1023.21 1022.47 1021.72 1020.95 1020.18 1019.39 1018.60 1017.80
1041.69 1041.35 1040.73 1039.83 1038.70 1037.40 1036.00 1034.59 1033.26 1032.09 1031.12 1030.39 1029.92 1029.68 1029.64 1029.74 1029.93 1030.15 1030.33 1030.44 1030.45 1030.36 1030.16 1029.87 1029.52 1029.12 1028.68 1028.23 1027.76 1027.27 1026.75 1026.20 1025.60 1024.95 1024.26 1023.51 1022.73 1021.93 1021.11 1020.28 1019.45 1018.62 1017.78 1016.93
1041.34 1040.80 1039.99 1038.93 1037.69 1036.32 1034.90 1033.52 1032.26 1031.19 1030.35 1029.76 1029.43 1029.31 1029.38 1029.56 1029.79 1030.02 1030.18 1030.26 1030.23 1030.09 1029.86 1029.55 1029.19 1028.79 1028.38 1027.96 1027.52 1027.05 1026.54 1025.98 1025.36 1024.66 1023.91 1023.10 1022.26 1021.38 1020.50 1019.62 1018.74 1017.87 1016.99 1016.11
1040.31 1039.59 1038.63 1037.49 1036.21 1034.86 1033.53 1032.28 1031.18 1030.30 1029.65 1029.25 1029.08 1029.11 1029.27 1029.51 1029.76 1029.97 1030.09 1030.11 1030.02 1029.83 1029.55 1029.21 1028.83 1028.45 1028.05 1027.65 1027.23 1026.78 1026.27 1025.70 1025.05 1024.32 1023.52 1022.65 1021.75 1020.83 1019.90 1018.97 1018.06 1017.15 1016.25 1015.34
1038.62 1037.75 1036.71 1035.54 1034.31 1033.07 1031.90 1030.86 1030.01 1029.37 1028.97 1028.79 1028.80 1028.97 1029.22 1029.51 1029.77 1029.96 1030.04 1030.00 1029.85 1029.60 1029.27 1028.90 1028.51 1028.12 1027.73 1027.33 1026.92 1026.46 1025.95 1025.35 1024.67 1023.91 1023.06 1022.15 1021.21 1020.25 1019.28 1018.33 1017.40 1016.47 1015.56 1014.64
1036.38 1035.42 1034.35 1033.23 1032.11 1031.06 1030.12 1029.35 1028.78 1028.43 1028.29 1028.34 1028.55 1028.85 1029.21 1029.55 1029.82 1030.00 1030.04 1029.96 1029.76 1029.47 1029.11 1028.71 1028.29 1027.88 1027.48 1027.06 1026.63 1026.15 1025.60 1024.97 1024.25 1023.44 1022.56 1021.61 1020.64 1019.64 1018.66 1017.69 1016.75 1015.82 1014.90 1013.97
1033.80 1032.79 1031.76 1030.75 1029.81 1028.99 1028.33 1027.86 1027.60 1027.54 1027.67 1027.95 1028.34 1028.78 1029.23 1029.63 1029.93 1030.11 1030.15 1030.05 1029.83 1029.51 1029.13 1028.70 1028.27 1027.82 1027.38 1026.92 1026.43 1025.90 1025.29 1024.61 1023.83 1022.97 1022.04 1021.06 1020.05 1019.03 1018.03 1017.05 1016.10 1015.16 1014.24 1013.30
1031.12 1030.13 1029.19 1028.34 1027.63 1027.09 1026.74 1026.58 1026.62 1026.85 1027.22 1027.71 1028.27 1028.84 1029.38 1029.84 1030.18 1030.38 1030.43 1030.34 1030.12 1029.80 1029.41 1028.96 1028.48 1027.99 1027.48 1026.95 1026.38 1025.76 1025.06 1024.29 1023.44 1022.51 1021.53 1020.50 1019.46 1018.42 1017.40 1016.41 1015.44 1014.49 1013.55 1012.61
Thickness
5505 5505 5505 5511 5519 5524 5525 5525 5526 5535 5545 5547 5547 5552 5558 5566 5571 5573 5574 5577 5581 5584 5590 5596 5600 5604 5607 5610 5613 5615 5618 5620 5622 5624 5626 5627 5627 5627 5626 5626 5626 5627 5627 5627
5487 5490 5499 5507 5511 5513 5515 5514 5516 5523 5533 5536 5534 5538 5546 5552 5556 5561 5563 5565 5569 5573 5578 5582 5586 5590 5593 5597 5600 5603 5605 5608 5611 5613 5614 5616 5616 5616 5616 5616 5616 5616 5616 5617
5475 5482 5493 5496 5498 5501 5503 5504 5507 5511 5518 5524 5526 5525 5533 5539 5546 5550 5552 5555 5557 5561 5565 5568 5572 5575 5578 5582 5586 5590 5592 5595 5597 5599 5601 5603 5604 5604 5605 5605 5605 5605 5606 5606
5467 5475 5481 5484 5487 5492 5495 5502 5504 5505 5503 5504 5512 5504 5517 5525 5531 5537 5539 5540 5543 5547 5551 5554 5558 5561 5563 5567 5571 5576 5579 5581 5583 5586 5587 5589 5589 5590 5591 5591 5592 5593 5593 5594
5460 5467 5471 5475 5480 5485 5488 5495 5497 5497 5495 5492 5497 5494 5501 5512 5518 5523 5526 5528 5529 5533 5537 5540 5543 5546 5550 5553 5557 5560 5564 5567 5569 5571 5572 5573 5574 5575 5576 5576 5577 5579 5580 5581
5455 5463 5466 5470 5477 5480 5483 5485 5485 5481 5478 5476 5487 5486 5489 5498 5509 5513 5514 5515 5516 5519 5522 5526 5529 5533 5536 5539 5543 5545 5548 5550 5553 5555 5557 5558 5559 5559 5560 5560 5561 5563 5565 5567
5446 5455 5461 5466 5468 5472 5473 5466 5456 5455 5451 5460 5479 5480 5483 5494 5501 5503 5502 5501 5503 5506 5508 5512 5515 5519 5521 5524 5527 5530 5532 5534 5536 5539 5541 5543 5543 5544 5544 5544 5545 5546 5548 5550
5431 5441 5453 5458 5460 5462 5465 5462 5449 5447 5451 5457 5468 5470 5478 5489 5491 5492 5491 5491 5492 5494 5495 5497 5499 5503 5506 5509 5512 5514 5516 5518 5520 5523 5524 5525 5526 5527 5528 5528 5528 5529 5531 5533
5425 5435 5449 5455 5458 5460 5458 5455 5457 5446 5436 5439 5451 5459 5473 5481 5481 5482 5481 5480 5480 5481 5483 5485 5487 5489 5492 5495 5497 5499 5501 5503 5504 5506 5508 5509 5510 5510 5511 5511 5512 5513 5514 5516
5429 5430 5442 5449 5456 5456 5456 5454 5445 5434 5429 5433 5450 5459 5462 5471 5472 5472 5470 5468 5469 5471 5472 5473 5475 5477 5479 5480 5482 5484 5486 5487 5489 5490 5491 5492 5493 5493 5493 5494 5495 5496 5497 5499
5429 5424 5433 5440 5442 5443 5446 5445 5442 5433 5429 5431 5437 5457 5469 5467 5467 5464 5461 5460 5459 5459 5460 5460 5462 5463 5465 5467 5469 5470 5471 5472 5473 5474 5474 5475 5476 5476 5477 5477 5477 5478 5479 5481
5426 5421 5420 5431 5439 5442 5443 5441 5437 5428 5422 5430 5439 5451 5465 5462 5459 5457 5455 5453 5451 5450 5448 5448 5449 5450 5451 5452 5454 5455 5456 5456 5457 5458 5458 5458 5458 5458 5459 5459 5459 5460 5461 5463
5427 5415 5412 5425 5429 5433 5435 5436 5435 5429 5423 5420 5423 5443 5455 5452 5450 5449 5447 5444 5442 5440 5439 5438 5438 5438 5438 5439 5439 5440 5440 5440 5441 5441 5441 5440 5440 5440 5440 5441 5441 5442 5444 5446
5426 5409 5409 5420 5425 5423 5426 5431 5431 5425 5415 5418 5429 5440 5446 5444 5443 5442 5438 5435 5431 5430 5429 5428 5426 5426 5426 5425 5425 5425 5425 5425 5425 5425 5424 5423 5422 5422 5422 5422 5423 5424 5426 5427
5415 5402 5403 5408 5413 5417 5420 5426 5427 5424 5424 5423 5433 5434 5442 5440 5438 5436 5431 5427 5424 5423 5420 5418 5416 5415 5414 5413 5412 5412 5411 5411 5410 5409 5408 5406 5405 5405 5405 5404 5404 5406 5407 5408
5405 5396 5395 5398 5408 5410 5415 5423 5424 5426 5426 5426 5429 5432 5438 5435 5430 5426 5423 5420 5417 5414 5412 5410 5408 5406 5404 5402 5401 5400 5398 5397 5396 5394 5392 5391 5389 5389 5388 5387 5387 5387 5388 5389
5394 5388 5386 5389 5391 5399 5405 5423 5425 5425 5426 5426 5428 5436 5432 5428 5425 5421 5417 5413 5410 5408 5405 5401 5398 5395 5392 5390 5388 5386 5384 5382 5380 5378 5376 5375 5373 5372 5371 5371 5370 5369 5370 5371
5390 5381 5369 5367 5379 5401 5426 5428 5424 5425 5428 5427 5429 5428 5426 5423 5420 5416 5411 5407 5403 5400 5396 5393 5388 5385 5381 5379 5376 5373 5371 5368 5366 5363 5361 5359 5357 5356 5355 5354 5353 5353 5352 5351
5393 5382 5363 5359 5365 5378 5412 5420 5419 5418 5421 5425 5423 5422 5417 5412 5409 5407 5405 5400 5396 5392 5387 5383 5379 5375 5371 5367 5364 5361 5358 5355 5352 5350 5347 5344 5341 5340 5339 5338 5337 5336 5335 5335
5387 5381 5364 5354 5368 5381 5426 5424 5420 5418 5415 5424 5418 5415 5409 5404 5400 5402 5399 5393 5388 5383 5379 5374 5369 5365 5360 5356 5353 5349 5346 5342 5339 5336 5333 5329 5325 5323 5322 5321 5320 5319 5317 5317
5374 5369 5362 5354 5355 5378 5412 5414 5412 5402 5418 5422 5414 5410 5403 5399 5400 5396 5390 5384 5380 5375 5370 5365 5360 5355 5350 5346 5341 5338 5334 5329 5325 5321 5317 5314 5310 5308 5306 5305 5303 5301 5300 5299
5374 5363 5357 5351 5357 5390 5416 5407 5408 5415 5419 5414 5408 5404 5398 5393 5389 5384 5379 5374 5369 5364 5360 5355 5349 5344 5340 5335 5330 5326 5321 5317 5312 5307 5303 5299 5296 5293 5291 5289 5288 5286 5283 5282
5383 5388 5381 5383 5404 5419 5413 5413 5415 5411 5408 5406 5400 5396 5390 5384 5379 5375 5370 5365 5360 5355 5350 5345 5339 5334 5329 5323 5318 5313 5308 5303 5298 5293 5289 5285 5282 5279 5277 5274 5273 5271 5268 5266
5385 5387 5385 5385 5404 5409 5408 5407 5407 5403 5402 5400 5394 5388 5382 5376 5372 5367 5362 5357 5351 5346 5339 5333 5327 5322 5317 5311 5305 5299 5294 5289 5284 5279 5276 5273 5270 5267 5264 5261 5259 5256 5254 5252
5390 5382 5380 5385 5400 5402 5406 5405 5404 5399 5394 5389 5384 5380 5375 5369 5365 5359 5354 5348 5342 5336 5329 5322 5316 5311 5306 5299 5293 5287 5281 5275 5270 5267 5264 5260 5257 5254 5252 5249 5246 5244 5243 5239
5394 5392 5389 5402 5408 5403 5410 5407 5400 5392 5388 5383 5377 5372 5366 5361 5357 5351 5344 5338 5331 5325 5318 5311 5305 5299 5293 5287 5281 5274 5268 5262 5258 5255 5252 5248 5245 5241 5238 5236 5235 5234 5231 5230